PLEIADES NEO 4

Last updated on Sun Jun 15 2025 00:02:29 GMT+0000 (Coordinated Universal Time)

1 49070U 21073E 25165.57262466 .00001143 00000+0 15178-3 0 9993 2 49070 97.8941 240.6097 0001581 91.6901 268.4493 14.81686168206934
UTC large
Height (km)
Speed (km/s)
/
Latitude / Longitude
Inclination (degrees)
Orbital Period (minutes)
Azimuth
Elevation
Range (km)
Doppler Factor

Next 0 passes for location: London (51.5072 / 0.1276)

Sorry there are no passes over London.